GEFSCGP_con_prob3kmehi_252.txt.gz
EHI
0 0 0 0 0 0 0 0 0 0 0 0 0 0 1 2 4 4 5 7 9 11 12 13 14 17 19 17 14 15 18 20 16 11 9 9 9 8 6 5 4 2 0 0
0 0 0 0 0 0 0 0 0 0 0 0 0 0 0 1 2 3 4 7 11 13 14 14 15 17 19 18 16 16 19 19 15 11 9 8 8 9 8 7 5 3 1 1
0 0 0 0 0 0 0 0 0 0 0 0 0 0 0 0 1 1 3 6 10 13 14 14 14 16 18 18 17 19 21 19 13 9 8 7 8 9 9 8 6 3 1 1
0 0 0 0 0 0 0 0 0 0 0 0 0 0 1 0 0 0 2 4 7 8 10 10 11 13 13 14 15 18 20 18 12 9 8 7 8 8 8 8 7 5 3 2
0 0 0 0 0 0 0 0 0 0 0 0 0 0 0 0 0 0 2 3 4 5 5 6 7 9 9 8 10 14 17 17 14 11 9 9 9 8 8 8 8 8 7 6
0 0 0 0 0 0 0 0 0 0 0 0 0 0 0 0 0 0 2 3 3 3 3 3 3 5 6 5 6 9 13 15 15 13 12 11 10 9 8 7 7 9 9 9
0 0 0 0 0 0 0 0 0 0 0 0 0 0 0 0 0 1 2 3 3 3 3 1 1 3 4 5 5 6 9 13 14 14 13 12 11 10 8 6 6 6 6 5
0 0 0 0 0 0 0 0 0 0 0 0 0 0 0 0 0 1 2 3 2 2 2 1 0 1 2 4 5 5 7 10 12 13 12 12 11 10 8 6 4 4 3 2
0 0 0 0 0 0 0 0 0 0 0 0 0 0 0 0 0 1 2 1 1 1 1 0 0 0 2 3 5 6 7 8 9 10 10 9 9 9 8 6 3 2 2 1
0 0 0 0 0 0 0 0 0 0 0 0 0 0 0 0 0 1 1 0 0 0 0 0 0 1 2 3 4 5 6 6 6 7 6 6 7 8 7 5 3 1 1 0
0 0 0 0 0 0 0 0 0 0 0 0 0 0 0 0 0 0 0 0 0 0 0 1 1 2 3 3 4 6 6 5 4 4 4 5 5 5 5 5 3 1 0 0
0 0 0 0 0 0 0 0 0 0 0 0 0 0 0 1 1 1 0 0 0 0 1 2 2 2 3 3 5 6 6 5 4 3 4 4 3 3 3 3 2 1 0 0
0 0 0 0 0 0 0 0 0 0 0 0 0 0 0 1 2 1 0 0 0 1 3 4 4 4 4 5 6 6 6 6 4 3 2 2 1 1 1 1 1 0 0 0
0 0 0 0 0 0 0 0 0 0 0 0 0 0 0 1 1 1 0 0 0 1 3 5 6 6 6 6 6 6 6 5 3 2 1 0 0 0 0 0 0 0 0 0
0 0 0 0 0 0 0 0 0 0 0 0 0 0 0 0 0 0 0 0 0 1 3 5 6 6 6 6 6 5 4 3 2 1 0 0 0 0 0 0 0 0 0 0
0 0 0 0 0 0 0 0 0 0 0 0 0 0 0 0 0 0 0 0 0 1 2 5 6 6 6 6 6 4 3 3 2 1 0 0 0 0 0 0 0 0 0 0
0 0 0 0 0 0 0 0 0 0 0 0 0 0 0 0 0 0 0 0 0 1 2 4 5 6 6 6 5 4 3 3 2 1 0 0 0 0 0 0 0 1 1 1
0 0 0 0 0 0 0 0 0 0 0 0 0 0 0 0 0 0 0 0 0 1 2 4 5 6 7 7 7 5 4 4 3 1 0 0 0 0 0 0 1 3 4 4
0 0 0 0 0 0 0 0 0 0 0 0 0 0 0 0 0 0 0 1 2 2 4 5 6 6 8 9 9 8 7 5 3 1 0 0 0 0 0 1 2 4 5 5
0 0 0 0 0 0 0 0 0 0 0 0 1 1 0 0 1 2 2 2 4 5 6 6 5 5 7 9 10 9 9 7 4 2 1 1 1 0 1 2 3 3 4 4
0 0 0 0 0 0 0 0 0 0 1 1 1 1 0 1 3 5 5 5 6 7 7 6 4 4 6 9 10 9 9 8 6 4 3 3 2 1 1 2 3 3 2 1
0 0 0 0 0 0 0 0 0 0 1 1 1 1 1 1 3 6 8 8 7 6 6 5 4 4 6 8 9 9 8 7 6 5 4 4 4 2 2 3 3 2 1 0
0 0 0 0 0 0 0 0 0 0 1 1 0 0 1 2 4 6 8 9 8 6 5 4 4 4 5 7 8 7 7 7 7 7 6 5 5 4 3 3 2 1 0 0
0 0 0 0 0 0 0 0 0 0 0 0 0 0 1 3 3 4 5 6 7 8 7 5 5 5 6 6 7 7 7 8 8 8 6 5 4 4 3 3 1 0 0 0
0 0 0 0 1 1 1 0 0 0 0 0 0 0 1 2 2 1 1 2 4 8 10 8 7 6 6 7 7 7 8 8 9 7 5 4 3 3 3 3 1 0 0 0
0 0 0 1 2 2 2 1 0 0 0 0 0 0 0 1 1 0 0 1 3 7 10 11 9 7 6 7 8 8 8 8 8 6 4 3 3 3 3 3 2 1 0 0

GEFSCGP_con_prob3kmehi_258.txt.gz
EHI
0 0 0 0 0 0 0 0 0 0 0 0 0 1 3 5 5 8 11 15 20 24 27 30 30 27 26 28 30 30 29 27 26 26 28 31 32 30 25 21 22 21 17 15
0 0 0 0 0 0 0 0 0 0 0 0 0 1 4 7 8 8 11 15 17 20 24 28 29 27 27 28 28 27 26 26 25 24 25 27 27 25 20 18 20 20 17 15
0 0 0 0 0 0 0 0 0 0 0 0 0 1 5 10 11 9 10 13 13 15 19 23 24 24 25 26 26 25 24 25 25 23 21 21 20 19 17 17 18 20 19 17
0 0 0 0 0 0 0 0 0 0 0 0 0 1 5 10 11 8 8 9 11 13 17 19 20 20 22 23 24 23 23 25 26 24 22 20 18 16 17 18 19 20 20 19
0 0 0 0 0 0 0 0 0 0 0 0 0 0 4 8 8 6 5 6 9 13 16 19 20 20 20 20 21 22 23 25 27 26 23 21 18 17 19 20 20 20 19 19
0 0 0 0 0 0 0 0 0 0 0 0 0 0 2 5 6 5 5 6 8 11 14 19 20 19 19 19 19 20 23 26 27 26 25 22 19 18 20 21 21 19 18 17
0 0 0 0 0 0 0 0 0 0 0 0 0 0 2 4 4 4 5 6 6 8 12 16 17 15 15 15 15 16 19 21 23 23 25 24 22 20 21 21 21 19 17 16
0 0 0 0 0 0 0 0 0 0 0 0 0 0 1 3 3 4 5 6 6 7 9 11 11 10 9 10 10 11 12 14 15 17 20 21 20 18 18 19 19 17 16 15
0 0 0 0 0 0 0 0 0 0 0 0 0 0 0 1 2 4 6 6 6 6 6 7 7 6 6 7 8 8 8 9 10 12 13 14 13 12 13 16 15 14 15 16
0 0 0 0 0 0 0 0 0 0 0 0 0 0 0 0 2 4 6 6 6 5 4 4 5 4 4 5 6 7 7 8 8 9 9 9 9 9 10 12 11 11 13 14
0 0 0 0 0 0 0 0 0 0 0 0 0 0 0 1 2 4 6 6 6 3 2 2 3 3 3 4 6 6 6 6 7 8 8 8 8 8 7 7 7 7 9 11
0 0 0 0 0 0 0 0 0 0 0 0 0 0 0 1 3 5 6 6 5 2 0 1 3 3 3 4 6 6 6 6 7 7 7 7 6 5 4 4 4 4 6 7
0 0 0 0 0 0 0 0 0 0 0 0 0 0 0 1 4 6 6 6 4 1 1 3 4 4 4 5 6 6 6 6 7 7 6 6 5 4 3 2 2 2 3 4
0 0 0 0 0 0 0 0 0 0 0 0 0 0 0 2 5 6 6 5 4 2 2 4 5 6 6 6 6 6 6 6 6 6 5 5 5 5 4 2 0 0 1 2
0 0 0 0 0 0 0 0 0 0 0 0 0 0 1 4 6 6 5 5 5 4 3 4 6 7 7 7 7 7 7 6 6 5 4 4 5 4 3 1 1 1 0 1
0 0 0 0 0 0 0 0 0 0 0 0 0 0 2 5 6 5 4 4 5 4 3 4 8 10 11 11 10 9 7 5 5 4 4 3 3 2 2 2 2 1 0 0
0 0 0 0 0 0 0 0 0 1 1 1 0 1 2 4 3 2 3 3 4 3 3 6 10 15 16 16 14 11 8 4 4 4 3 3 2 1 1 2 2 1 0 0
1 1 1 0 0 0 0 0 0 2 3 2 1 2 3 3 2 2 3 4 4 4 6 9 14 17 19 20 18 14 9 5 3 3 3 3 2 1 1 1 1 0 1 1
1 2 1 0 0 0 0 0 1 2 3 3 3 4 4 3 2 4 6 6 6 7 11 14 15 16 19 20 19 15 11 6 4 3 3 3 2 1 0 0 0 1 2 2
1 1 1 0 0 0 0 0 1 1 2 2 3 5 4 3 5 8 10 9 9 11 14 16 14 14 17 20 18 15 12 9 6 4 3 3 3 2 1 1 2 3 4 3
0 0 0 0 0 0 1 1 2 3 3 2 3 4 4 5 7 10 12 13 14 15 15 16 16 17 18 21 20 16 12 9 7 5 4 4 4 2 1 3 4 6 6 5
0 0 1 1 1 1 3 3 4 5 5 3 4 4 5 7 8 9 11 14 17 18 17 19 21 22 23 22 20 16 11 9 8 7 6 5 4 3 3 5 6 7 8 7
0 0 2 3 2 3 4 5 6 6 4 3 4 5 6 8 9 9 9 13 16 18 19 20 23 24 23 21 18 15 12 11 10 10 9 7 6 5 6 7 6 7 7 6
0 0 1 2 2 3 4 4 4 3 3 2 2 3 5 8 10 10 11 13 16 17 18 18 20 21 19 17 16 16 14 14 14 14 13 10 8 7 7 6 5 5 5 4
0 0 1 1 1 2 3 3 2 2 2 1 0 1 3 7 10 11 12 15 17 17 17 16 16 15 14 13 15 17 17 16 16 16 15 11 8 6 6 4 3 3 2 2
0 0 0 1 1 2 2 2 1 1 2 1 0 0 1 5 9 12 13 16 17 17 17 15 13 12 10 10 12 16 18 17 16 16 15 10 6 4 4 4 3 2 1 1

GEFSCGP_con_prob3kmehi_264.txt.gz
EHI
0 0 0 0 0 0 0 0 0 0 0 0 1 1 2 5 9 11 11 14 14 13 13 14 13 13 14 13 12 13 14 15 15 15 11 9 7 5 4 4 4 3 3 3
0 0 0 0 0 0 0 0 0 0 0 0 0 0 1 4 8 9 10 11 14 15 16 15 13 12 14 14 12 12 13 13 14 14 11 9 7 5 4 4 3 3 2 1
0 0 0 0 0 0 0 0 0 0 0 0 0 0 1 4 6 7 7 9 13 16 18 16 13 13 15 15 12 11 10 10 11 11 11 9 7 5 3 3 3 3 1 0
0 0 0 0 0 0 0 0 0 0 0 0 0 0 1 3 6 6 7 9 12 15 17 16 13 12 14 14 12 10 8 7 8 9 9 8 6 4 3 3 3 2 1 1
0 0 0 0 0 0 0 0 0 0 0 0 0 0 1 2 5 6 8 10 12 14 15 14 13 11 12 12 11 9 8 8 8 8 8 7 5 4 4 3 2 1 1 1
0 0 0 0 0 0 0 0 0 0 0 0 0 0 0 1 2 5 7 9 12 14 14 13 13 13 12 11 9 9 8 8 7 7 7 6 5 5 6 5 2 0 0 1
0 0 0 0 0 0 0 0 0 0 0 0 0 0 0 0 1 3 5 8 12 15 15 13 13 13 11 9 8 8 7 6 6 6 6 5 4 5 6 5 3 1 0 1
0 0 0 0 0 0 0 0 0 0 0 0 0 0 0 0 1 3 5 9 13 16 15 13 12 12 9 6 6 6 4 4 4 4 4 4 3 4 4 3 2 1 0 1
0 0 0 0 0 0 0 0 0 0 0 0 0 0 0 0 1 3 6 10 13 15 13 11 10 9 7 5 4 4 2 2 3 3 3 3 2 2 2 2 1 0 0 0
0 0 0 0 0 0 0 0 0 0 0 0 0 0 0 0 1 3 6 9 12 12 10 8 8 8 6 4 4 4 2 1 2 3 3 1 1 1 2 1 0 0 0 0
0 0 0 0 0 0 0 0 0 0 0 0 0 0 0 0 1 3 5 7 8 8 6 5 6 7 6 4 4 4 3 2 3 3 2 1 0 1 1 1 0 0 0 0
0 0 0 0 0 0 0 0 0 0 0 0 0 0 0 0 1 2 4 6 7 6 5 5 6 7 6 5 4 4 3 3 3 3 2 1 0 1 1 0 0 0 0 0
0 0 0 0 0 0 0 0 0 0 0 0 0 0 0 0 0 1 4 7 8 7 6 7 8 9 8 6 5 4 3 3 3 3 1 0 0 0 0 0 0 0 0 0
0 0 0 0 0 0 0 0 0 0 0 0 0 0 0 0 0 1 4 7 8 7 7 8 9 9 8 7 5 4 3 3 3 2 1 0 0 0 0 0 0 0 0 0
0 0 0 0 0 0 0 0 0 0 0 0 0 0 0 0 0 1 3 5 5 5 5 7 8 8 7 6 5 3 2 3 3 2 1 0 0 0 0 0 0 0 0 0
0 0 0 0 0 0 0 0 0 0 0 0 0 0 0 0 1 2 3 4 2 1 2 3 5 6 6 5 4 3 3 3 3 2 1 0 0 0 0 0 0 0 0 0
0 0 0 0 0 0 0 0 1 1 1 0 0 0 0 1 2 3 4 4 2 0 0 1 1 3 4 3 3 3 3 3 3 1 0 0 0 0 0 0 0 0 0 0
0 0 0 0 0 0 0 0 1 2 2 1 1 1 1 3 4 5 6 5 3 1 0 0 0 1 1 1 2 3 3 3 2 1 0 0 0 0 0 0 0 0 0 0
0 0 0 0 0 0 0 0 1 2 2 1 0 1 2 5 6 6 6 5 3 1 1 1 1 0 0 0 1 2 3 3 3 1 0 0 0 0 0 0 0 0 0 0
0 0 0 0 0 0 0 0 0 1 1 0 1 1 2 5 6 6 4 3 2 2 3 3 2 1 0 0 0 2 3 3 3 2 1 0 0 0 0 0 0 0 0 0
0 0 0 0 0 0 0 0 0 0 0 1 2 2 2 3 4 4 3 1 1 3 4 3 2 2 1 1 1 2 3 3 3 3 2 1 0 0 0 0 0 0 0 0
0 0 0 0 0 0 0 0 0 0 0 2 2 2 2 3 3 3 2 1 1 2 2 2 2 3 3 2 2 2 3 3 3 3 2 1 0 0 0 0 0 0 0 0
0 0 0 0 0 0 0 0 0 0 0 1 3 3 2 3 3 2 1 0 0 1 1 1 3 3 4 5 4 3 2 2 3 3 2 1 0 0 0 0 0 0 0 0
0 0 0 0 0 0 0 0 0 0 0 1 3 3 3 3 2 1 0 0 0 1 1 2 4 4 5 5 4 2 1 1 3 3 2 0 0 0 0 0 0 0 0 0
0 0 0 0 0 0 0 0 0 0 1 3 4 4 3 2 2 2 1 1 1 2 3 4 5 6 6 4 3 1 0 1 2 3 3 1 1 0 0 0 0 0 0 0
0 0 0 0 0 0 0 0 0 1 2 4 6 4 3 2 2 2 2 2 2 3 4 5 6 6 6 4 1 0 0 0 1 3 4 3 2 1 0 0 0 0 0 0

GEFSCGP_con_prob3kmehi_270.txt.gz
EHI
0 0 0 0 0 0 0 0 0 0 0 0 0 0 0 1 2 2 3 4 6 8 9 9 9 9 8 7 7 8 9 9 7 5 3 2 2 1 0 0 0 0 0 0
0 0 0 0 0 0 0 0 0 0 0 0 0 0 0 0 1 2 3 5 5 7 10 10 8 8 7 7 8 9 9 8 6 6 5 5 3 1 0 0 0 0 0 0
0 0 0 0 0 0 0 0 0 0 0 0 0 0 0 0 0 2 3 5 5 7 8 9 8 7 7 8 9 10 9 7 6 7 8 7 4 2 1 0 0 0 0 0
0 0 0 0 0 0 0 0 0 0 0 0 0 0 0 0 0 1 2 4 6 6 6 7 8 8 8 8 9 9 7 6 7 8 8 7 5 3 2 1 0 0 0 0
0 0 0 0 0 0 0 0 0 0 0 0 0 0 0 0 0 0 1 3 5 5 5 6 8 9 9 8 8 7 5 4 5 6 5 5 4 4 3 2 0 0 0 0
0 0 0 0 0 0 0 0 0 0 0 0 0 0 0 0 0 0 0 2 4 4 5 8 9 9 9 7 5 5 4 2 2 3 3 4 4 4 3 2 1 0 0 0
0 0 0 0 0 0 0 0 0 0 0 0 0 0 0 0 0 0 0 1 4 5 7 9 10 10 9 7 4 3 2 1 1 2 3 3 4 3 3 3 2 1 0 0
0 0 0 0 0 0 0 0 0 0 0 0 0 0 0 0 0 0 0 1 4 6 7 9 9 9 8 6 4 2 1 0 0 1 2 3 3 3 3 3 2 1 0 0
0 0 0 0 0 0 0 0 0 0 0 0 0 0 0 0 0 0 0 1 4 6 8 9 8 7 7 6 4 2 1 0 0 0 1 2 2 2 2 1 1 0 0 0
0 0 0 0 0 0 0 0 0 0 0 0 0 0 0 0 0 0 0 1 4 6 8 8 5 4 5 5 4 2 1 0 0 0 0 1 1 1 1 0 0 0 0 0
0 0 0 0 0 0 0 0 0 0 0 0 0 0 0 0 0 0 0 1 3 6 8 6 3 1 3 4 3 2 1 1 1 1 0 0 0 0 0 0 0 0 0 0
0 0 0 0 0 0 0 0 0 0 0 0 0 0 0 0 0 0 0 1 3 6 7 5 1 0 1 3 3 2 2 2 2 1 0 0 0 0 0 0 0 0 0 0
0 0 0 0 0 0 0 0 0 0 0 0 0 0 0 0 0 0 1 2 3 5 5 3 1 0 1 2 3 2 2 2 1 1 0 0 0 0 0 0 0 0 0 0
0 0 0 0 0 0 0 0 0 0 0 0 0 0 0 0 0 0 2 2 3 4 4 3 1 0 1 2 2 3 2 1 0 0 0 0 0 0 0 0 0 0 0 0
0 0 0 0 0 0 0 0 0 0 0 0 0 0 0 0 0 0 1 2 3 4 5 4 2 0 0 1 2 2 1 0 0 0 0 0 0 0 0 0 0 0 0 0
0 0 0 0 0 0 0 0 0 0 0 0 0 0 0 0 0 0 0 1 2 4 5 3 1 0 0 1 2 1 0 0 0 0 0 0 0 0 0 0 0 0 0 0
0 0 0 0 0 0 0 0 0 0 0 0 0 0 0 0 0 0 0 0 1 3 4 2 0 0 0 1 1 0 0 0 0 0 0 0 0 0 0 0 0 0 0 0
0 0 0 0 0 0 0 0 0 0 0 0 0 0 0 0 0 0 0 0 1 3 3 1 0 0 0 0 0 0 0 0 0 0 0 0 0 0 0 0 0 0 0 0
0 0 0 0 0 0 0 0 0 0 0 0 0 0 0 0 0 0 0 0 1 2 2 1 0 0 0 0 0 0 0 0 1 0 0 0 0 0 0 0 0 0 0 0
0 0 0 0 0 0 0 0 0 0 0 0 0 0 0 0 0 0 0 0 1 2 1 0 0 0 0 0 0 0 0 0 0 0 0 0 0 0 0 0 0 0 0 0
0 0 0 0 0 0 0 0 0 0 0 0 0 0 0 0 0 0 0 1 1 1 0 0 0 0 0 0 0 0 0 0 0 0 0 0 0 0 0 0 0 0 0 0
0 0 0 0 0 0 0 0 0 0 0 0 0 0 0 0 0 0 0 1 1 0 0 0 0 0 0 0 0 0 0 0 0 0 0 0 0 0 0 0 0 0 0 0
0 0 0 0 0 0 0 0 0 0 0 0 0 0 0 1 0 0 0 0 0 0 0 0 0 0 0 0 0 0 0 0 0 0 0 0 0 0 0 0 0 0 0 0
0 0 0 0 0 0 0 0 0 0 0 0 0 0 1 1 0 0 0 0 0 0 0 0 0 0 0 0 0 0 0 0 0 0 0 0 0 0 0 0 0 0 0 0
0 0 0 0 0 0 0 0 0 0 0 0 0 0 1 0 0 0 0 0 0 0 0 0 0 0 0 0 0 0 0 0 0 0 0 0 0 0 0 0 0 0 0 0
0 0 0 0 0 0 0 0 0 0 0 0 0 0 1 0 0 0 0 0 0 0 0 0 0 0 0 0 0 0 0 0 0 0 0 0 0 0 0 0 0 0 0 0

GEFSCGP_con_prob3kmehi_276.txt.gz
EHI
0 0 0 0 0 0 0 0 0 0 0 0 0 0 0 1 0 0 0 1 3 4 7 12 16 16 16 18 19 18 17 15 15 15 15 15 11 8 6 3 3 4 4 3
0 0 0 0 0 0 0 0 0 0 0 0 0 0 0 1 0 0 0 1 2 4 7 12 17 17 18 19 21 20 18 16 15 16 16 16 13 10 7 4 3 4 4 3
0 0 0 0 0 0 0 0 0 0 0 0 0 0 0 0 0 0 0 0 1 2 5 12 17 18 19 21 22 22 20 17 15 16 16 15 14 13 9 6 4 4 3 3
0 0 0 0 0 0 0 0 0 0 0 0 0 0 0 0 0 0 0 0 0 1 3 9 16 18 19 21 23 23 20 16 14 14 15 14 13 12 10 7 6 4 4 4
0 0 0 0 0 0 0 0 0 0 0 0 0 0 0 0 0 0 0 0 0 1 2 5 10 14 17 19 21 21 19 16 12 11 12 12 10 10 9 8 7 6 6 6
0 0 0 0 0 0 0 0 0 0 0 0 0 0 0 0 0 0 0 0 1 2 4 5 7 10 14 17 18 18 17 15 11 9 8 8 8 8 9 9 7 7 7 8
0 0 0 0 0 0 0 0 0 0 0 0 0 0 0 0 0 0 0 2 3 5 6 8 9 10 13 16 17 17 16 14 10 8 7 6 6 6 7 8 7 7 7 6
0 0 0 0 0 0 0 0 0 0 0 0 0 0 0 0 0 0 1 4 5 6 7 9 11 12 13 16 18 18 16 12 9 8 8 7 5 4 4 6 7 6 5 3
0 0 0 0 0 0 0 0 0 0 0 0 0 0 0 0 0 1 2 4 5 6 7 8 11 12 12 15 18 18 16 13 9 8 8 7 5 2 3 5 7 6 4 3
0 0 0 0 0 0 0 0 0 0 0 0 0 0 0 0 1 2 2 2 3 5 6 8 11 12 11 12 15 16 16 14 10 8 8 7 4 1 2 6 7 6 4 3
0 0 0 0 0 0 0 0 0 0 0 0 0 0 0 0 1 2 2 1 2 3 5 9 13 14 12 10 11 13 14 12 9 7 7 7 4 1 1 4 6 6 4 2
0 0 0 0 0 0 0 0 0 0 0 0 0 0 0 0 1 2 3 1 1 1 4 8 12 13 11 7 7 10 10 9 6 5 6 6 4 1 0 2 3 5 4 3
0 0 0 0 0 0 0 0 0 0 0 0 0 0 0 0 1 3 3 3 2 2 4 8 11 11 8 6 6 7 7 6 5 5 6 7 5 2 0 0 1 3 4 4
0 0 0 0 0 0 0 0 0 0 0 0 0 0 0 1 2 3 4 4 4 4 5 9 12 11 9 7 7 8 6 5 5 6 7 8 7 4 1 0 1 2 3 3
0 0 0 0 0 0 0 0 0 0 0 0 0 0 0 1 2 3 3 4 5 5 5 8 11 12 11 10 10 10 9 8 7 6 6 7 7 5 2 0 0 2 3 3
0 0 0 0 0 0 0 0 0 0 0 0 0 0 0 1 3 3 3 3 3 4 5 8 10 12 13 13 11 10 10 10 9 6 5 5 5 5 3 1 1 2 3 3
0 0 0 0 0 0 0 0 0 0 0 1 1 1 1 2 3 3 3 3 2 2 5 8 9 11 13 13 11 9 8 7 8 7 5 4 4 4 3 2 3 4 3 3
0 0 0 0 0 0 0 0 0 0 1 2 2 2 2 2 2 2 3 3 2 2 3 5 7 9 10 10 10 8 6 4 5 6 7 6 4 3 4 4 5 5 4 4
0 0 0 0 0 0 0 0 1 1 2 2 2 2 2 1 1 1 1 2 2 2 3 3 5 6 6 6 7 7 5 3 4 5 7 7 6 5 5 6 6 5 5 5
0 0 0 0 0 0 0 0 0 1 2 1 1 1 1 1 0 0 0 1 1 1 2 3 5 5 5 5 6 6 5 4 3 3 4 6 7 7 7 7 6 6 6 5
0 0 0 0 0 0 0 1 1 1 2 1 1 0 0 1 0 0 0 0 0 1 2 4 5 6 5 5 5 6 6 4 3 2 2 4 6 7 7 7 7 7 6 5
1 1 1 1 0 0 1 1 2 3 3 2 1 0 0 0 0 0 0 0 1 2 2 2 3 5 5 5 5 6 7 6 3 2 3 3 5 6 6 7 7 7 6 5
2 2 2 1 0 0 1 1 2 3 2 1 1 0 0 0 0 0 0 0 1 1 1 1 1 2 3 4 5 6 7 7 4 3 3 3 4 5 6 7 7 6 6 5
2 3 3 1 0 1 1 0 0 1 1 0 0 0 0 0 0 0 0 0 0 0 0 0 0 1 1 2 3 4 5 6 5 4 3 3 3 3 5 7 7 7 6 6
3 4 3 1 1 2 1 0 0 0 0 0 0 0 0 0 0 0 0 0 0 0 0 0 0 0 0 1 1 1 3 4 4 3 3 3 2 2 4 6 6 5 5 5
2 4 4 2 2 3 2 1 0 1 1 1 0 0 0 0 0 0 0 0 0 1 1 1 0 0 0 0 0 1 3 3 2 3 3 3 2 3 4 5 4 3 2 2

GEFSCGP_con_prob3kmehi_282.txt.gz
EHI
0 0 0 0 0 0 0 0 0 0 0 0 0 1 2 2 3 5 9 13 17 24 29 33 37 41 42 40 39 37 34 35 39 42 40 37 33 29 26 23 21 16 11 9
0 0 0 0 0 0 0 0 0 0 0 0 0 0 1 1 3 5 8 11 14 20 27 32 37 41 41 39 36 34 32 33 37 39 38 36 33 29 26 24 21 16 12 10
0 0 0 0 0 0 0 0 0 0 0 1 1 0 0 0 2 4 6 7 10 17 26 32 35 38 39 37 35 32 30 31 33 34 33 32 31 29 26 25 22 17 13 11
0 0 0 0 0 0 0 0 0 0 0 1 1 0 0 1 2 3 4 6 9 15 24 31 33 35 37 37 34 32 31 31 31 30 29 28 28 27 25 22 19 16 14 12
0 0 0 0 0 0 0 0 0 0 0 0 0 0 0 1 2 3 4 7 9 12 20 28 33 35 36 35 33 33 33 33 31 30 29 28 24 23 23 20 16 14 13 12
0 0 0 0 0 0 0 0 0 0 0 0 0 0 0 1 2 3 4 7 8 9 15 24 31 33 34 32 30 32 35 35 33 31 29 27 23 22 21 19 14 12 12 12
0 0 0 0 0 0 0 0 0 0 0 0 0 0 0 1 1 1 4 7 8 8 13 21 25 28 32 32 30 32 35 36 34 30 27 25 21 20 19 16 13 11 10 10
0 0 0 0 0 0 0 0 0 0 0 0 0 0 1 1 1 0 2 6 8 9 13 18 21 26 31 35 36 37 38 36 32 28 25 22 18 17 16 14 12 10 9 8
0 0 0 0 0 0 0 0 0 0 0 0 0 0 2 3 2 1 2 5 8 10 13 17 21 27 33 37 40 41 40 36 30 25 22 20 18 16 15 14 12 10 8 7
0 0 0 0 0 0 0 0 0 0 0 0 0 0 1 3 3 3 3 4 8 11 14 18 22 27 33 38 40 40 39 36 30 25 21 20 18 15 13 13 13 10 8 6
0 0 0 0 0 0 0 0 0 0 0 0 0 0 1 2 3 3 3 4 7 11 14 17 19 25 31 35 37 37 36 33 29 25 22 21 18 14 12 14 14 11 9 7
0 0 0 0 0 0 0 0 0 0 0 0 1 2 2 3 3 3 4 5 8 12 13 13 16 23 30 33 34 34 33 30 26 24 23 23 19 15 13 13 11 9 8 7
0 0 0 0 0 0 0 0 0 0 0 0 1 2 3 2 3 5 6 8 11 14 14 15 17 24 29 32 32 32 30 28 25 23 24 25 23 19 15 10 7 6 5 5
0 0 0 0 0 0 0 0 0 0 0 0 1 2 2 2 3 5 7 10 14 16 16 17 21 27 32 33 32 30 30 28 26 24 24 25 23 20 16 10 7 5 3 3
1 0 0 0 0 0 0 0 0 0 0 0 1 2 1 1 3 4 6 9 13 15 14 15 22 31 35 35 33 32 32 31 30 27 24 21 20 19 15 10 8 6 4 3
2 1 0 0 0 0 0 0 0 1 2 2 2 2 3 3 4 6 7 8 11 13 13 14 22 33 38 37 35 35 35 34 32 27 23 20 18 16 13 10 8 7 5 5
2 1 1 0 0 0 0 1 2 4 4 4 4 4 5 6 7 8 8 8 9 13 15 17 23 31 36 38 38 37 35 32 27 23 20 19 18 14 10 9 10 9 8 7
2 3 2 0 0 0 1 2 4 6 5 5 5 6 7 8 9 10 9 8 10 13 18 22 26 29 33 37 40 38 34 29 23 19 17 17 15 12 9 9 11 13 12 10
4 5 3 0 0 0 0 1 3 5 5 4 5 6 6 7 9 10 10 10 11 14 20 25 29 31 33 36 38 37 33 28 23 18 15 13 12 12 10 11 14 16 15 12
4 5 4 1 0 0 1 1 2 3 4 5 5 6 6 7 9 11 13 13 14 17 21 27 32 33 35 36 35 32 28 24 21 18 14 12 12 13 13 14 15 17 16 14
2 3 3 1 0 1 2 2 3 5 6 6 6 7 8 9 11 14 16 15 16 18 21 24 28 31 33 32 28 24 20 17 16 17 16 14 14 13 13 15 17 17 16 15
1 3 4 3 2 3 4 4 6 9 10 8 6 7 8 9 11 13 14 15 16 16 16 17 21 26 28 27 23 18 14 12 13 14 15 16 16 14 13 15 18 19 17 14
2 4 5 6 6 7 7 6 7 9 9 7 5 5 6 6 6 8 10 12 13 14 14 13 15 19 20 19 17 14 12 11 12 12 13 17 18 17 15 16 19 19 16 12
1 2 5 7 8 8 7 6 6 6 5 3 3 3 4 3 3 5 7 10 12 13 13 12 11 12 12 12 12 11 12 12 11 10 12 15 16 15 15 16 18 18 13 9
1 1 3 5 6 5 5 4 4 3 1 1 2 3 3 2 2 4 7 10 12 13 12 11 10 8 8 8 8 8 9 10 10 9 9 10 10 10 11 13 14 13 9 6
2 2 2 2 3 3 4 5 4 2 0 1 2 3 2 1 2 5 9 11 11 12 11 11 11 8 7 6 6 7 6 6 7 8 8 7 6 6 6 9 10 8 5 4

GEFSCGP_con_prob3kmehi_288.txt.gz
EHI
0 0 0 0 0 0 0 0 0 0 0 0 1 2 6 9 10 9 6 8 13 17 17 19 22 23 23 25 24 21 21 21 21 20 19 17 15 11 7 5 5 4 4 5
0 0 0 0 0 0 0 0 0 0 0 0 0 1 4 6 7 5 5 6 10 14 17 20 22 22 22 23 21 19 19 19 19 19 19 18 16 13 9 6 4 3 4 5
0 0 0 0 0 0 0 0 0 0 0 0 0 0 1 4 4 3 3 4 7 11 16 20 22 22 21 19 17 16 17 17 17 17 18 18 17 14 11 7 4 3 3 4
0 0 0 0 0 0 0 0 0 0 0 0 0 0 1 2 3 4 4 4 6 10 15 19 22 23 22 19 16 15 16 16 15 15 16 16 15 13 11 7 4 3 3 3
0 0 0 0 0 0 0 0 0 0 0 0 0 0 0 1 2 4 4 5 7 12 16 19 22 24 24 23 19 17 17 17 15 14 14 12 11 11 9 6 3 2 2 3
0 0 0 0 0 0 0 0 0 0 0 0 0 0 0 0 1 2 3 4 6 12 17 21 23 23 23 24 23 20 19 17 16 15 12 10 10 10 9 6 2 1 2 3
0 0 0 0 0 0 0 0 0 0 0 0 0 0 0 0 0 1 3 3 4 9 17 23 23 21 21 22 22 22 19 16 16 14 12 10 10 10 8 5 3 2 3 3
0 0 0 0 0 0 0 0 0 0 0 0 0 0 0 0 0 2 3 3 3 7 15 21 21 19 19 21 21 20 17 14 14 13 12 11 11 9 7 4 3 3 3 3
0 0 0 0 0 0 0 0 0 0 0 0 0 0 0 0 0 2 3 3 3 4 9 15 17 17 18 20 20 18 16 12 11 11 12 11 11 8 6 4 3 3 2 1
0 0 0 0 0 0 0 0 0 0 0 0 0 0 0 0 1 2 3 4 4 3 6 11 13 14 17 18 18 18 16 13 10 9 10 11 10 7 5 4 3 2 1 0
0 0 0 0 0 0 0 0 0 0 0 0 0 0 0 0 1 3 4 5 6 5 6 9 11 13 15 16 16 15 14 12 9 8 10 10 8 6 4 3 2 1 0 0
0 0 0 0 0 0 0 0 0 0 0 0 0 0 0 1 3 4 4 5 7 6 6 8 10 13 15 15 13 11 10 10 9 9 10 9 6 4 3 2 1 0 0 0
0 0 0 0 0 0 0 0 0 0 0 0 0 0 0 2 4 6 5 5 6 7 6 6 9 13 15 15 13 10 9 10 11 10 9 7 5 3 2 1 0 0 0 0
0 0 0 0 0 0 0 0 0 0 0 0 0 1 1 2 4 5 5 6 7 8 6 4 7 11 14 15 14 12 11 12 12 11 7 5 3 1 1 0 0 0 0 0
0 0 0 0 0 0 0 0 0 1 1 1 1 1 1 1 2 4 4 5 7 7 4 3 5 9 13 15 15 14 14 13 12 9 5 2 1 0 0 0 0 0 0 0
0 0 0 0 1 1 1 0 0 1 2 2 1 1 1 1 2 3 3 4 5 5 3 2 5 8 12 14 15 15 15 15 12 8 3 1 0 0 0 0 0 0 0 0
0 0 0 0 1 1 1 0 0 1 1 1 1 0 0 0 1 2 3 3 4 4 3 2 3 7 11 13 12 13 15 15 12 7 4 2 1 0 0 0 0 0 0 0
0 0 0 0 0 0 0 0 0 0 0 0 0 0 0 0 0 1 2 3 3 4 4 3 2 5 8 10 10 10 12 13 10 7 5 3 1 0 0 0 0 0 0 0
0 0 0 0 0 0 0 0 0 0 0 0 0 0 0 0 0 1 1 1 2 3 3 3 3 4 6 7 7 7 9 10 8 7 6 3 1 1 0 0 0 0 0 0
0 0 0 0 0 0 0 0 0 0 0 0 0 0 0 0 1 2 2 1 2 3 4 4 4 4 4 5 6 7 8 8 7 7 6 4 2 2 1 0 0 0 0 0
0 0 0 0 0 0 0 0 0 0 0 0 0 0 1 1 2 4 4 2 2 4 5 4 4 4 3 4 6 7 8 7 6 6 5 3 2 2 1 0 0 0 0 0
0 0 0 0 0 0 0 0 0 0 1 1 1 1 2 3 5 5 4 2 2 4 4 3 2 1 2 3 4 5 5 5 4 4 3 2 2 2 1 1 1 1 0 0
0 0 0 0 0 0 0 0 0 0 1 2 2 2 3 4 4 4 2 0 1 2 3 2 1 0 1 2 3 3 2 2 2 2 2 2 1 1 1 1 1 1 1 1
0 0 0 0 0 0 0 0 0 0 0 1 1 1 1 1 1 1 0 0 0 1 3 3 2 1 0 1 2 2 2 2 2 2 2 2 1 0 0 0 1 1 1 2
0 0 0 0 0 0 0 0 0 0 0 0 0 0 0 0 0 0 0 0 0 1 2 3 3 2 1 0 1 2 3 3 3 3 2 1 1 0 0 0 0 0 1 2
0 0 0 0 0 0 0 0 0 0 0 0 0 0 0 0 0 0 0 0 0 1 2 3 4 3 1 1 2 2 3 3 3 3 1 0 0 0 0 0 0 0 1 1

GEFSCGP_con_prob3kmehi_294.txt.gz
EHI
0 0 0 0 0 0 0 0 0 0 0 0 0 0 1 3 6 7 8 9 9 10 9 6 6 10 12 13 14 13 11 12 12 10 7 6 4 3 1 0 1 0 0 0
0 0 0 0 0 0 0 0 0 0 0 0 0 0 1 3 5 5 5 5 8 10 10 8 8 11 13 14 14 13 12 12 12 11 8 6 5 3 1 1 1 0 0 0
0 0 0 0 0 0 0 0 0 0 0 0 0 0 1 2 2 2 1 2 5 9 10 9 10 12 13 14 14 14 13 13 12 10 8 7 6 5 3 2 1 0 0 0
0 0 0 0 0 0 0 0 0 0 0 0 0 0 0 0 0 0 0 1 3 6 7 7 10 12 12 12 13 13 12 12 11 9 8 8 8 7 5 4 2 1 1 1
0 0 0 0 0 0 0 0 0 0 0 0 0 0 0 0 0 0 0 0 2 4 4 4 7 11 11 10 10 10 9 10 9 8 8 8 7 7 7 5 3 3 2 2
0 0 0 0 0 0 0 0 0 0 0 0 0 0 0 0 0 0 0 0 0 1 2 2 5 9 10 8 6 6 7 8 9 9 9 8 7 7 7 5 4 3 3 3
0 0 0 0 0 0 0 0 0 0 0 0 0 0 0 1 1 0 0 0 0 0 1 2 4 7 8 7 6 4 5 7 9 9 9 8 8 9 8 6 4 3 2 2
0 0 0 0 0 0 0 0 0 0 0 0 0 0 0 1 1 0 0 0 0 0 1 2 4 5 6 7 7 6 5 6 8 10 10 9 9 9 9 6 3 1 1 1
0 0 0 0 0 0 0 0 0 0 0 0 0 0 0 0 0 0 0 0 0 0 0 1 3 4 4 6 8 9 7 7 9 11 10 9 9 10 9 6 2 0 0 0
0 0 0 0 0 0 0 0 0 0 0 0 0 0 0 0 0 0 0 0 0 0 0 1 2 3 4 5 8 10 9 8 10 10 10 9 9 8 7 4 1 0 0 0
0 0 0 0 0 0 0 0 0 0 0 0 0 0 0 0 0 0 0 0 0 0 0 0 1 2 4 6 9 10 9 9 9 8 8 8 7 6 4 2 0 0 0 0
0 0 0 0 0 0 0 0 0 0 0 0 0 0 0 0 0 0 0 0 0 0 0 0 0 1 4 6 8 9 8 8 8 7 7 6 5 3 2 0 0 0 0 0
0 0 0 0 0 0 0 0 0 0 0 0 0 0 0 0 0 0 0 0 0 0 0 0 0 1 3 4 6 7 8 8 8 7 6 5 3 1 1 0 0 0 0 0
0 0 0 0 0 0 0 1 1 0 0 0 0 0 0 0 0 0 0 0 0 0 0 0 0 1 3 4 5 7 8 8 7 6 4 4 2 1 0 0 0 0 0 0
0 0 0 0 0 0 0 1 2 1 0 0 0 0 0 0 0 0 0 0 0 1 1 1 0 1 3 4 5 8 9 9 7 4 3 2 1 0 0 0 0 0 0 0
0 0 0 0 0 0 0 1 2 2 1 0 0 0 0 0 0 0 0 0 0 1 2 2 1 1 4 5 7 9 10 9 6 4 2 1 0 0 0 0 0 0 0 0
0 0 0 0 0 0 0 0 1 1 1 0 0 0 0 0 1 1 1 1 1 1 1 1 1 1 4 6 7 9 9 8 6 3 1 0 0 0 0 0 0 0 0 0
0 0 0 0 0 0 0 0 0 0 0 0 0 0 0 0 1 1 2 2 2 2 1 0 0 1 4 6 7 8 8 7 5 2 0 0 0 0 0 0 0 0 0 0
0 0 0 0 0 0 0 0 0 0 0 0 0 0 0 0 0 1 1 3 3 2 1 0 0 1 3 5 6 7 6 5 3 1 0 0 0 0 0 0 0 0 0 0
0 0 0 0 0 0 0 0 0 0 0 0 0 0 0 0 0 0 1 2 3 1 0 0 0 1 2 3 4 4 4 3 3 2 1 0 0 0 0 0 0 0 0 0
0 0 0 0 0 0 0 0 0 0 0 0 0 0 0 0 0 0 1 2 3 1 0 0 0 1 1 1 1 1 1 2 3 3 2 0 0 0 0 0 0 0 0 0
0 0 0 0 0 0 0 0 0 0 0 0 0 0 0 0 0 0 1 2 3 2 1 0 0 0 0 0 0 0 0 1 1 2 1 0 0 0 0 0 0 0 0 0
0 0 0 0 0 0 0 0 0 0 0 0 0 0 0 0 0 0 0 1 2 2 1 0 0 0 0 0 0 0 0 0 0 0 0 0 0 0 0 0 0 0 0 0
0 0 0 0 0 0 0 0 0 0 0 0 0 0 0 0 0 0 0 0 1 1 0 0 0 0 0 0 0 0 0 0 0 0 0 0 0 0 0 0 0 0 0 0
0 0 0 0 0 0 0 0 0 0 0 0 0 0 0 0 0 0 0 0 0 0 0 0 0 0 0 0 0 0 0 0 0 0 0 0 0 0 0 0 0 0 0 0
0 0 0 0 0 0 0 0 0 0 0 0 0 0 0 0 0 0 0 0 0 0 0 0 0 0 0 0 0 0 0 0 0 0 0 0 0 0 0 0 0 0 0 0